Downloads

 /Hard Songs Megapack Volume 10/ 
  • Folders: 0
  • Files: 52 : 186.6 M
I FILENAME FILESIZE FILEDATE HITS
  1000 BPM.rar 1.8 M 2010-03-20 15:37:44 8
  400 BPM Speedcore.rar 1.4 M 2010-03-20 15:37:39 7
  Almost Again.rar 4.0 M 2010-03-20 15:37:49 13
  Arkanoid.rar 3.2 M 2010-03-20 15:37:52 12
  Balloon Fever SHD mix.rar 3.0 M 2010-03-20 15:37:55 4
  Between Shit And Piss We Are Born.rar 5.3 M 2010-03-20 15:38:00 13
  CaptivAte CHIKAI.rar 1.6 M 2010-03-20 15:38:02 5
  Circus Galop.rar 8.8 M 2010-03-20 15:38:12 5
  Cloud Control.rar 3.0 M 2010-03-20 15:38:13 5
  Contact me & Submissions.txt 222 2010-03-20 00:14:47 94
  Contract.rar 6.6 M 2010-03-20 15:38:21 4
  Cry of the Blackbirds.rar 3.6 M 2010-03-20 15:38:24 10
  Dashed Hopes III.rar 676.6 K 2010-03-20 15:38:25 8
  DIST SQUAD.rar 3.0 M 2010-03-20 15:38:28 4
  Dossar mp3 player part 2.rar 2.3 M 2010-03-20 15:38:30 10
  Dossar mp3 player part 3.rar 2.4 M 2010-03-20 15:38:33 4
  Downfall.rar 4.3 M 2010-03-20 15:38:37 13
  Epic Moon.rar 3.5 M 2010-03-20 15:38:40 4
  Eye For An Eye.rar 4.3 M 2010-03-20 15:38:43 4
  Final Destination.rar 1.9 M 2010-03-20 15:38:45 7
  FR&LG Final Battle.rar 2.4 M 2010-03-20 15:38:48 6
  Gaussian Mist 2.rar 8.0 M 2010-03-20 15:38:55 14
  Got A feeling Statik.rar 5.0 M 2010-03-20 15:39:00 4
  grind4.rar 2.0 M 2010-03-20 15:39:02 4
  Guitar Speed World Record 2008.rar 9.7 M 2010-03-20 15:39:14 13
  Hall of the Mountain King.rar 5.2 M 2010-03-20 15:39:19 14
  Hard Songs Megapack Volume 10.png 113.3 K 2010-03-22 16:15:57 73
  Horse & Goat.rar 566.5 K 2010-03-20 15:39:19 5
  Jump yourself.rar 2.1 M 2010-03-20 15:39:23 9
  LIFE.rar 4.4 M 2010-03-20 15:39:27 4
  Losing Touch.rar 3.9 M 2010-03-20 15:39:31 4
  Night of Nights.rar 2.1 M 2010-03-20 15:39:33 6
  No (Aussie Abmient Dub Remix).rar 4.1 M 2010-03-20 15:39:37 5
  One More Cutie.rar 6.6 M 2010-03-20 15:39:45 5
  Operation Ground and Pound.rar 10.9 M 2010-03-20 15:39:58 4
  Pandemonic Hyperblast.rar 5.4 M 2010-03-20 15:40:04 13
  Pink Fuzzy Bunnies.rar 2.5 M 2010-03-20 15:40:05 4
  Pokemon Battle Imaging No.2.rar 3.0 M 2010-03-20 15:40:09 13
  Prelude No.7 Book I.rar 3.1 M 2010-03-20 15:40:12 13
  Ranger Elite.rar 4.1 M 2010-03-20 15:40:16 5
  Rave Loop 2 (Extended Mix).rar 896.9 K 2010-03-20 15:40:17 4
  Readme & Songlist.txt 2.8 K 2010-03-20 00:48:43 127
  Runny Mornings.rar 2.4 M 2010-03-20 15:40:20 4
  Samurai Hardbeat.rar 7.6 M 2010-03-20 15:40:30 15
  samurai's mp3 player aka linus's bullshit v2.rar 6.5 M 2010-03-20 15:40:37 4
  Sonic the Hedgehog 3 and Knuckles - 51 Doomsday Zone.rar 2.4 M 2010-03-20 15:40:39 5
  Static TV.rar 558.7 K 2010-03-20 15:40:40 4
  Terastream.rar 2.6 M 2010-03-20 15:40:45 5
  The Pervert.rar 5.5 M 2010-03-20 15:40:51 4
  The Prototype DUMP#HANDSTREAM.rar 2.6 M 2010-03-20 15:40:53 4
  Ubertreffen.rar 3.0 M 2010-03-20 15:40:56 12
  Xecus.rar 2.5 M 2010-03-20 15:41:01 4
 

 
Powered by HFS 2.3k
 
  LOGIN
  GO TO ROOT
  GO BACK
  TOP OF PAGE